Find Starlink 36534

NORAD ID: 67496 Int'l Des: 2026-012 Owner: SPXS Country: US Constellation: starlink operational
LEOCIRCULAR

現在のビュー

3D地球を読み込み中...

Starlink 36534について

説明を読み込み中...

次回通過

Passes for default location (London). Set your location on the main map for personalized predictions.

高度履歴

Loading altitude history...

軌道要素

1 67496U 26012D 26146.26363696 .00018052 00000-0 66334-3 0 9994
2 67496 42.9977 236.4982 0001182 280.9826 79.0892 15.27607580 19627
Epoch: May 26, 2026 • Age: 14 hours

現在のステータス

高度 483.2 km
速度 7.63 km/s
衛星直下点 25.56°N, 70.06°E
打ち上げ日 Jan 18, 2026
運用期間 0.3 years
タイプ internet

技術仕様

分類 Payload
質量 575.00 kg
乾燥質量 530.00 kg
総質量 575.00 kg
長さ 0.30 m
直径 4.10 m
スパン 29.00 m
形状 Box + pan
製造者 SPXS
バスタイプ Starlink V2MO
フェーズステータス In Orbit
所有者/国 SPXS/US

Most Searched